Location: Newark
(48.4472°N, 1.4892°E)
Time: 16:33:19
(UTC+00:00)

SR - All Passes

Search period start: 14 November 2019 00:00
Search period end: 24 November 2019 00:00
Orbit: 574 x 882 km, 66.7° (Epoch: 14 November)

Date Brightness Start Highest point End Pass type
(mag) Time Alt. Az. Time Alt. Az. Time Alt. Az.
14 Nov - 00:00:10 10° NNW 00:06:06 64° NE 00:11:53 10° SE night (unlit)
14 Nov - 01:42:54 10° NW 01:47:52 28° WSW 01:52:42 10° SSW night (unlit)
14 Nov - 14:35:30 10° SSE 14:39:04 19° ESE 14:42:49 10° ENE daylight
14 Nov - 16:15:04 10° SW 16:20:24 82° NW 16:26:13 10° NE daylight
14 Nov - 17:59:00 10° W 18:03:26 24° NNW 18:08:06 10° NNE visible
14 Nov - 19:45:09 10° NNW 19:47:45 13° N 19:50:25 10° NNE visible
14 Nov - 21:28:46 10° NNW 21:32:25 16° NNE 21:36:04 10° ENE visible
14 Nov - 23:10:34 10° NNW 23:16:11 41° NE 23:21:41 10° ESE night (unlit)
15 Nov - 00:52:45 10° NW 00:58:29 49° WSW 01:04:01 10° S night (unlit)
15 Nov - 15:25:37 10° SSW 15:30:48 58° ESE 15:36:25 10° NE daylight
15 Nov - 17:08:19 10° WSW 17:13:16 34° NW 17:18:32 10° NNE visible
15 Nov - 18:54:04 10° NW 18:57:14 15° NNW 19:00:28 10° NNE visible
15 Nov - 20:38:59 10° NNW 20:41:54 14° N 20:44:51 10° NE visible
15 Nov - 22:21:01 10° NNW 22:26:05 28° NE 22:31:06 10° E visible
16 Nov - 00:02:55 10° NW 00:08:55 84° WSW 00:14:44 10° SSE night (unlit)
16 Nov - 01:46:38 10° WNW 01:50:11 17° WSW 01:53:40 10° SW night (unlit)
16 Nov - 14:36:45 10° S 14:41:24 32° ESE 14:46:22 10° NE daylight
16 Nov - 16:18:00 10° SW 16:23:16 52° NW 16:28:58 10° NNE daylight
16 Nov - 18:02:55 10° WNW 18:06:47 18° NNW 18:10:47 10° NNE visible
16 Nov - 19:48:49 10° NNW 19:51:20 13° N 19:53:53 10° NNE visible
16 Nov - 21:31:28 10° NNW 21:35:49 21° NNE 21:40:11 10° ENE visible
16 Nov - 23:13:15 10° NNW 23:19:10 61° NE 23:24:56 10° SE night (unlit)
17 Nov - 00:55:55 10° NW 01:00:58 30° WSW 01:05:53 10° SSW night (unlit)
17 Nov - 13:48:44 10° SE 13:52:11 18° ESE 13:55:48 10° ENE daylight
17 Nov - 15:28:07 10° SW 15:33:28 86° NW 15:39:18 10° NE daylight
17 Nov - 17:11:57 10° W 17:16:28 25° NNW 17:21:12 10° NNE visible
17 Nov - 18:58:05 10° NW 19:00:46 13° N 19:03:28 10° NNE visible
17 Nov - 20:41:51 10° NNW 20:45:25 16° NNE 20:49:00 10° NE visible
17 Nov - 22:23:39 10° NNW 22:29:13 39° NE 22:34:42 10° ESE visible
18 Nov - 00:05:50 10° NW 00:11:35 52° WSW 00:17:08 10° S night (unlit)
18 Nov - 14:38:42 10° SSW 14:43:53 55° ESE 14:49:29 10° NE daylight
18 Nov - 16:21:18 10° WSW 16:26:18 35° NW 16:31:39 10° NNE daylight
18 Nov - 18:06:59 10° NW 18:10:14 15° NNW 18:13:33 10° NNE visible
18 Nov - 19:52:02 10° NNW 19:54:54 14° N 19:57:49 10° NE visible
18 Nov - 21:34:06 10° NNW 21:39:08 27° NE 21:44:04 10° E visible
18 Nov - 23:16:00 10° NW 23:22:00 87° WSW 23:27:48 10° SSE night (unlit)
19 Nov - 00:59:35 10° WNW 01:03:18 17° WSW 01:06:58 10° SW night (unlit)
19 Nov - 13:49:53 10° S 13:54:30 31° ESE 13:59:26 10° NE daylight
19 Nov - 15:31:01 10° SW 15:36:20 55° NW 15:42:04 10° NNE daylight
19 Nov - 17:15:50 10° WNW 17:19:48 19° NNW 17:23:53 10° NNE visible
19 Nov - 19:01:48 10° NNW 19:04:20 13° N 19:06:53 10° NNE visible
19 Nov - 20:44:33 10° NNW 20:48:50 20° NNE 20:53:07 10° ENE visible
19 Nov - 22:26:20 10° NNW 22:32:14 58° NE 22:37:57 10° SE night (unlit)
20 Nov - 00:08:57 10° NW 00:14:05 31° WSW 00:19:03 10° S night (unlit)
20 Nov - 13:01:59 10° SE 13:05:18 17° ESE 13:08:46 10° ENE daylight
20 Nov - 14:41:10 10° SSW 14:46:33 90° NW 14:52:23 10° NE daylight
20 Nov - 16:24:54 10° W 16:29:29 25° NNW 16:34:18 10° NNE daylight
20 Nov - 18:11:01 10° NW 18:13:45 13° N 18:16:32 10° NNE visible
20 Nov - 19:54:55 10° NNW 19:58:26 16° NNE 20:01:57 10° NE visible
20 Nov - 21:36:45 10° NNW 21:42:17 38° NE 21:47:42 10° ESE visible
20 Nov - 23:18:53 10° NW 23:24:41 54° WSW 23:30:15 10° SSE night (unlit)
21 Nov - 13:51:48 10° SSW 13:56:58 52° ESE 14:02:34 10° NE daylight
21 Nov - 15:34:15 10° WSW 15:39:21 37° NW 15:44:45 10° NNE daylight
21 Nov - 17:19:54 10° NW 17:23:14 15° NNW 17:26:38 10° NNE visible
21 Nov - 19:05:04 10° NNW 19:07:54 13° N 19:10:45 10° NE visible
21 Nov - 20:47:12 10° NNW 20:52:09 26° NNE 20:57:02 10° E visible
21 Nov - 22:29:05 10° NW 22:35:05 89° NE 22:40:52 10° SSE night (unlit)
22 Nov - 00:12:32 10° WNW 00:16:26 18° WSW 00:20:14 10° SW night (unlit)
22 Nov - 13:03:02 10° SSE 13:07:36 29° ESE 13:12:28 10° NE daylight
22 Nov - 14:44:01 10° SW 14:49:23 57° NW 14:55:09 10° NNE daylight
22 Nov - 16:28:46 10° WNW 16:32:48 19° NNW 16:36:59 10° NNE daylight
22 Nov - 18:14:47 10° NNW 18:17:20 13° N 18:19:54 10° NNE visible
22 Nov - 19:57:38 10° NNW 20:01:51 20° NNE 20:06:04 10° ENE visible
22 Nov - 21:39:25 10° NNW 21:45:17 56° NE 21:51:00 10° SE visible
22 Nov - 23:22:00 10° NW 23:27:12 33° WSW 23:32:13 10° S night (unlit)
23 Nov - 12:15:15 10° SE 12:18:25 16° ESE 12:21:43 10° ENE daylight
23 Nov - 13:54:13 10° SSW 13:59:37 86° SE 14:05:28 10° NE daylight
23 Nov - 15:37:50 10° W 15:42:31 26° NNW 15:47:25 10° NNE daylight
23 Nov - 17:23:57 10° NW 17:26:45 13° N 17:29:35 10° NNE visible
23 Nov - 19:07:59 10° NNW 19:11:26 16° NNE 19:14:53 10° NE visible
23 Nov - 20:49:50 10° NNW 20:55:19 36° NE 21:00:41 10° ESE visible
23 Nov - 22:31:57 10° NW 22:37:46 57° WSW 22:43:22 10° SSE night (unlit)
